Regional Weather Roundup
Issued by NWS

Home | Current Version | Previous Version | Text Only | Print | Product List | Glossary Off
Versions: 1 2 3 4 5 6 7 8 9 10 11 12 13 14 15 16 17 18 19 20 21 22 23 24 25 26 27 28 29 30 31 32 33 34 35 36 37 38 39 40 41 42 43 44 45 46 47 48 49 50

000
ASUS45 KBOU 230207
RWRCO

WEATHER ROUNDUP FOR COLORADO
NATIONAL WEATHER SERVICE DENVER/BOULDER CO
700 PM MST SAT NOV 22 2014

NOTE: "FAIR" INDICATES FEW OR NO CLOUDS BELOW 12000 FEET WITH NO
SIGNIFICANT WEATHER AND/OR OBSTRUCTIONS TO VISIBILITY.

COZ001>005-013-030-031-230300-
...NORTHWEST COLORADO...

CITY           SKY/WX    TMP DP  RH WIND       PRES   REMARKS
CRAIG          CLOUDY    40  27  59 W15       29.73F
HAYDEN         CLOUDY    32  28  86 E7        29.74F WCI  26
MEEKER         CLOUDY    39  29  67 SW18G26   29.76F
MOUNT WERNER   NOT AVBL
STEAMBOAT SPGS CLOUDY    32  31  97 CALM      29.74F VSB 1
WALDEN         CLOUDY    30  27  86 S8        29.72F WCI  23
$$

COZ006>008-011-230300-
...WEST CENTRAL VALLEYS...

CITY           SKY/WX    TMP DP  RH WIND       PRES   REMARKS
GRAND JUNCTION MOCLDY    35  33  92 N5        29.79F WCI  31
MONTROSE       MOCLDY    41  26  55 NW7       29.83F
EAGLE          LGT SNOW  36  32  87 CALM      29.84  FOG
RIFLE          LGT RAIN  36  33  89 N5        29.82F
DELTA          CLOUDY    44  35  70 NE12      29.83F
NUCLA          CLOUDY    45  21  39 E6        29.86F
$$

COZ017>023-064>068-230300-
...SOUTHWEST COLORADO...

CITY           SKY/WX    TMP DP  RH WIND       PRES   REMARKS
DURANGO        CLOUDY    39  19  44 S6        29.91F
CORTEZ         MOCLDY    38  24  57 CALM      29.89F
PAGOSA SPRINGS CLOUDY    37  19  48 NE3       29.95S
TELLURIDE      CLOUDY    35  20  53 SE3       29.93F
WOLF CREEK PAS LGT SNOW  18  18 100 SW22G33   29.97R VSB 3/4 WCI   0
$$

COZ009-010-012-014-032>034-037-058>063-230300-
...CENTRAL COLORADO...

CITY           SKY/WX    TMP DP  RH WIND       PRES   REMARKS
ASPEN          LGT SNOW  32  30  92 SW3       29.83R FOG
BUENA VISTA    CLOUDY    36  26  67 N10G22    29.81F
COPPER MTN     SNOW      27  19  74 W15G29    29.85F VSB 1/2 WCI  15
BERTHOUD PASS  LGT SNOW  19  14  79 W36G47    29.78F VSB 1   WCI  -1
COTTONWOOD PAS CLOUDY    32  25  74 NW13G25   29.80F WCI  22
GUNNISON       CLOUDY    28  21  74 NW6       29.90F WCI  22
KREMMLING      CLOUDY    36  28  75 SW13G23   29.76F
LEADVILLE      LGT SNOW  26  24  92 VRB6      29.82F FOG     WCI  19
SALIDA         CLOUDY    36  30  77 NE6       29.88F
SUNLIGHT       LGT SNOW  27  27 100 SW3       29.84F VSB 3/4
WILKERSON PASS MOCLDY    27  18  69 SW22G31   29.81F WCI  12
$$

COZ069>075-230300-
...SAN LUIS VALLEY/SANGRE DE CRISTO MOUNTAINS...

CITY           SKY/WX    TMP DP  RH WIND       PRES   REMARKS
ALAMOSA        MOCLDY    31  15  52 SW7       29.85R WCI  24
LA VETA PASS   PTCLDY    30  10  43 S21G39    29.78F WCI  17
SAGUACHE       CLOUDY    34  27  75 NW10      29.86F WCI  26
$$

COZ035-036-038>040-230300-
...NORTHERN COLORADO FRONT RANGE...

CITY           SKY/WX    TMP DP  RH WIND       PRES   REMARKS
DENVER INTL AP MOCLDY    49  23  36 NW12      29.58F
DMNS CITY PARK   N/A     49  23  36 NW7       29.58F
AURORA         MOCLDY    46  25  44 NW13      29.60F
FRONT RANGE AP MOCLDY    46  28  49 W14       29.60S
ERIE MUNI ARPT MOCLDY    42  24  49 CALM      29.58S
BOULDER MUN AP MOCLDY    46  23  39 CALM      29.59R
CENTENNIAL     MOCLDY    47  24  40 NE5       29.61S
BROOMFIELD     CLOUDY    52  25  35 W21G26    29.60F
FORT COLLINS   MOCLDY    43  21  42 CALM      29.59F
LONGMONT       MOCLDY    51  25  35 CALM      29.61R
$$

COZ041-046-047-076>085-087-088-230300-
...PIKES PEAK/PALMER DIVIDE AND SOUTHERN FOOTHILLS...

CITY           SKY/WX    TMP DP  RH WIND       PRES   REMARKS
COLO. SPRINGS  CLOUDY    55  18  23 W29G44    29.64R
A. F. ACADEMY  CLOUDY    50  18  27 W17G24    29.66R
ELLICOTT       NOT AVBL
FALCON         NOT AVBL
FORT CARSON    CLOUDY    48  16  27 VRB6      29.61S
LIMON          CLOUDY    35  16  45 W5        29.56F WCI  31
MONUMENT HILL  CLOUDY    37  16  41 CALM      29.65S
TRINIDAD       MOCLDY    40  26  57 NW9       29.64R
$$

COZ042>045-048>051-090-091-230300-
...NORTHEAST COLORADO...

CITY           SKY/WX    TMP DP  RH WIND       PRES   REMARKS
GREELEY ARPT   CLOUDY    34  21  60 SE3       29.58S
AKRON          CLOUDY    46  17  31 N10       29.56F
BURLINGTON     CLOUDY    44  19  36 S8        29.55S
WRAY           CLOUDY    49  10  21 N7        29.53S
STERLING       CLOUDY    48  25  40 E6        29.54S
HOLYOKE        CLOUDY    43  18  36 NW5       29.54S
FORT MORGAN    CLOUDY    46  15  29 N10       29.55F
$$

COZ086-089-092>099-230300-
...SOUTHEAST COLORADO...

CITY           SKY/WX    TMP DP  RH WIND       PRES   REMARKS
PUEBLO         MOCLDY    57  18  21 W29G37    29.59R
LA JUNTA       CLOUDY    50  27  40 SW14      29.54S
LAMAR          MOCLDY    40  24  53 S10       29.51F
SPRINGFIELD      N/A     35  22  58 SW6       29.57F WCI  30
$$



USA.gov is the U.S. government's official web portal to all federal, state and local government web resources and services.